Terminal Aerodrome Forecast
Issued by NWS Charleston, WV

Current Version | Previous Version | Graphics & Text | Print | Product List | Glossary On
Versions: 1 2 3 4 5 6 7 8 9 10 11 12 13 14 15 16 17 18 19 20 21 22 23 24 25
000
FTUS41 KRLX 211100
TAFHTS
TAF
KHTS 211129Z 2112/2212 23005KT P6SM OVC035
      TEMPO 2112/2114 BKN015
     FM211400 29006KT P6SM BKN025
     FM211700 30008KT P6SM OVC035
     FM220500 32006KT P6SM OVC025
     FM221000 31005KT P6SM OVC020=

USA.gov is the U.S. government's official web portal to all federal, state and local government web resources and services.